This is the latest recevied weather packets stored in our database for station/object KD7AWQ. If no packets are shown the sender has not sent any weather packets the latest 10 day(s).
| Time | Temp. | Humidity | Pressure | Rain* | Wind** | Luminosity | Snow |
|---|---|---|---|---|---|---|---|
| 1778046564 | 12.22° C | 50% | 1183 hPa | 0 mm | - | 0 W/m² | - |
| 1778045957 | 12.78° C | 48% | 1183 hPa | 0 mm | - | 0 W/m² | - |
| 1778045656 | 12.78° C | 47% | 1183 hPa | 0 mm | - | 0 W/m² | - |
| 1778045354 | 12.78° C | 47% | 1182.8 hPa | 0 mm | - | 0 W/m² | - |
| 1778045052 | 12.78° C | 47% | 1182.6 hPa | 0 mm | - | 0 W/m² | - |
| 1778044750 | 13.33° C | 46% | 1182.7 hPa | 0 mm | - | 0 W/m² | - |
| 1778044446 | 13.33° C | 45% | 1182.6 hPa | 0 mm | - | 0 W/m² | - |
| 1778044143 | 13.89° C | 45% | 1182.7 hPa | 0 mm | - | 0 W/m² | - |
| 1778043841 | 13.89° C | 44% | 1182.6 hPa | 0 mm | - | 0 W/m² | - |
| 1778043538 | 13.89° C | 43% | 1182.4 hPa | 0 mm | - | 0 W/m² | - |
| 1778043234 | 13.89° C | 43% | 1182.6 hPa | 0 mm | - | 0 W/m² | - |
| 1778042931 | 14.44° C | 43% | 1182.1 hPa | 0 mm | - | 0 W/m² | - |
| 1778042326 | 13.89° C | 43% | 1182 hPa | 0 mm | - | 0 W/m² | - |
| 1778042023 | 13.89° C | 43% | 1182.1 hPa | 0 mm | - | 0 W/m² | - |
| 1778041721 | 13.89° C | 43% | 1182 hPa | 0 mm | - | 0 W/m² | - |
| 1778041420 | 13.89° C | 43% | 1182 hPa | 0 mm | - | 0 W/m² | - |
| 1778041118 | 13.89° C | 43% | 1182 hPa | 0 mm | - | 0 W/m² | - |
| 1778040815 | 14.44° C | 42% | 1181.9 hPa | 0 mm | - | 0 W/m² | - |
| 1778040512 | 13.89° C | 43% | 1182.1 hPa | 0 mm | - | 0 W/m² | - |
| 1778040210 | 14.44° C | 42% | 1182 hPa | 0 mm | - | 0 W/m² | - |
| 1778039905 | 14.44° C | 42% | 1182 hPa | 0 mm | - | 0 W/m² | - |
| 1778039603 | 14.44° C | 42% | 1181.9 hPa | 0 mm | - | 0 W/m² | - |
| 1778039300 | 14.44° C | 42% | 1181.9 hPa | 0 mm | - | 0 W/m² | - |
| 1778038997 | 14.44° C | 42% | 1181.6 hPa | 0 mm | - | 0 W/m² | - |
| 1778038694 | 14.44° C | 42% | 1181.6 hPa | 0 mm | - | 0 W/m² | - |
* Rain latest hour (hover to see other rain measurements)
** Current wind speed in m/s (hover to see current wind gust speed)